When you browse on this site, cookies collect data to enhance your experience and personalize the content and advertising you see.
Visit our Privacy Policy to learn more. By continuing to use the site, you agree to this use of cookies and data.
  • In Österreich
  • Länderverzeichnis
  • Für 7 Tage
  • Wassertemperatur
  • Satellitenkarten
  • Wetterkarte
  • News
  • Widgets
  • user-avatar
    Anmelden

    Stündliche Wetter Rangpur

    Heute, 25 Juni, Dienstag

    Zeit Temperatur Niederschläge Wind Luftdruck Luftfeuchtigkeit
    00:00 +32°C° 0 mm 2 m/S 750 mmHg 70%
    01:00 +33°C° 0 mm 3 m/S 749 mmHg 71%
    02:00 +33°C° 0 mm 3 m/S 749 mmHg 72%
    03:00 +31°C° 0 mm 3 m/S 748 mmHg 73%
    04:00 +31°C° 0.3 mm 3 m/S 749 mmHg 76%
    05:00 +31°C° 0.3 mm 3 m/S 749 mmHg 79%
    06:00 +31°C° 0.3 mm 3 m/S 749 mmHg 82%
    07:00 +33°C° 1.8 mm 3 m/S 749 mmHg 76%
    08:00 +35°C° 1.8 mm 3 m/S 749 mmHg 69%
    09:00 +36°C° 1.8 mm 3 m/S 750 mmHg 62%
    10:00 +37°C° 0.6 mm 3 m/S 749 mmHg 59%
    11:00 +38°C° 0.6 mm 3 m/S 749 mmHg 55%
    12:00 +40°C° 0.6 mm 4 m/S 749 mmHg 51%
    13:00 +39°C° 0 mm 3 m/S 748 mmHg 50%
    14:00 +40°C° 0 mm 3 m/S 747 mmHg 49%
    15:00 +40°C° 0 mm 3 m/S 747 mmHg 48%
    16:00 +38°C° 0.9 mm 3 m/S 747 mmHg 56%
    17:00 +36°C° 0.9 mm 3 m/S 746 mmHg 64%
    18:00 +35°C° 0.9 mm 3 m/S 746 mmHg 72%
    19:00 +34°C° 0.1 mm 3 m/S 746 mmHg 74%
    20:00 +34°C° 0.1 mm 4 m/S 747 mmHg 75%
    21:00 +33°C° 0.1 mm 4 m/S 747 mmHg 76%
    22:00 +33°C° 0 mm 4 m/S 747 mmHg 76%
    23:00 +33°C° 0 mm 5 m/S 747 mmHg 76%

    Morgen, 26 Juni, Mittwoch

    Zeit Temperatur Niederschläge Wind Luftdruck Luftfeuchtigkeit
    00:00 +33°C° 0 mm 5 m/S 747 mmHg 77%
    01:00 +33°C° 0.1 mm 4 m/S 747 mmHg 77%
    02:00 +32°C° 0.1 mm 4 m/S 746 mmHg 77%
    03:00 +31°C° 0.1 mm 3 m/S 746 mmHg 77%
    04:00 +31°C° 0.4 mm 3 m/S 746 mmHg 78%
    05:00 +31°C° 0.4 mm 3 m/S 746 mmHg 79%
    06:00 +31°C° 0.4 mm 3 m/S 746 mmHg 80%
    07:00 +33°C° 0 mm 4 m/S 747 mmHg 76%
    08:00 +33°C° 0 mm 4 m/S 747 mmHg 73%
    09:00 +34°C° 0 mm 5 m/S 747 mmHg 69%
    10:00 +35°C° 0 mm 5 m/S 747 mmHg 66%
    11:00 +36°C° 0 mm 5 m/S 747 mmHg 63%
    12:00 +37°C° 0 mm 5 m/S 746 mmHg 60%
    13:00 +38°C° 0.1 mm 4 m/S 746 mmHg 58%
    14:00 +38°C° 0.1 mm 4 m/S 745 mmHg 56%
    15:00 +38°C° 0.1 mm 4 m/S 745 mmHg 54%
    16:00 +37°C° 0.3 mm 4 m/S 745 mmHg 59%
    17:00 +36°C° 0.3 mm 4 m/S 744 mmHg 63%
    18:00 +35°C° 0.3 mm 4 m/S 744 mmHg 68%
    19:00 +34°C° 0 mm 5 m/S 744 mmHg 70%
    20:00 +33°C° 0 mm 5 m/S 745 mmHg 73%
    21:00 +32°C° 0 mm 6 m/S 745 mmHg 75%
    22:00 +32°C° 0.3 mm 6 m/S 745 mmHg 77%
    23:00 +30°C° 0.3 mm 6 m/S 745 mmHg 80%

    übermorgen, 27 Juni, Donnerstag

    Zeit Temperatur Niederschläge Wind Luftdruck Luftfeuchtigkeit
    00:00 +30°C° 0.3 mm 6 m/S 745 mmHg 82%
    01:00 +30°C° 0.7 mm 6 m/S 745 mmHg 84%
    02:00 +30°C° 0.7 mm 6 m/S 744 mmHg 85%
    03:00 +30°C° 0.7 mm 6 m/S 744 mmHg 87%
    04:00 +30°C° 1.2 mm 5 m/S 744 mmHg 87%
    05:00 +30°C° 1.2 mm 5 m/S 744 mmHg 88%
    06:00 +30°C° 1.2 mm 5 m/S 744 mmHg 89%
    07:00 +32°C° 0.2 mm 5 m/S 744 mmHg 85%
    08:00 +33°C° 0.2 mm 5 m/S 745 mmHg 81%
    09:00 +34°C° 0.2 mm 5 m/S 745 mmHg 77%
    10:00 +35°C° 0.2 mm 5 m/S 745 mmHg 72%
    11:00 +36°C° 0.2 mm 5 m/S 745 mmHg 66%
    12:00 +37°C° 0.2 mm 5 m/S 744 mmHg 61%
    13:00 +39°C° 0.2 mm 5 m/S 744 mmHg 60%
    14:00 +39°C° 0.2 mm 5 m/S 743 mmHg 59%
    15:00 +40°C° 0.2 mm 6 m/S 742 mmHg 58%
    16:00 +38°C° 0.7 mm 6 m/S 742 mmHg 63%
    17:00 +36°C° 0.7 mm 5 m/S 742 mmHg 69%
    18:00 +34°C° 0.7 mm 5 m/S 742 mmHg 75%
    19:00 +33°C° 0.3 mm 5 m/S 742 mmHg 79%
    20:00 +32°C° 0.3 mm 5 m/S 743 mmHg 83%
    21:00 +30°C° 0.3 mm 4 m/S 743 mmHg 86%
    22:00 +30°C° 0.1 mm 4 m/S 743 mmHg 86%
    23:00 +30°C° 0.1 mm 4 m/S 744 mmHg 85%

    28 Juni, Freitag

    Zeit Temperatur Niederschläge Wind Luftdruck Luftfeuchtigkeit
    00:00 +30°C° 0.1 mm 4 m/S 744 mmHg 84%
    01:00 +30°C° 0.2 mm 3 m/S 743 mmHg 86%
    02:00 +29°C° 0.2 mm 3 m/S 743 mmHg 88%
    03:00 +29°C° 0.2 mm 3 m/S 743 mmHg 90%
    04:00 +29°C° 0.2 mm 3 m/S 743 mmHg 90%
    05:00 +29°C° 0.2 mm 3 m/S 743 mmHg 91%
    06:00 +29°C° 0.2 mm 4 m/S 743 mmHg 91%
    07:00 +30°C° 0.4 mm 4 m/S 743 mmHg 88%
    08:00 +32°C° 0.4 mm 5 m/S 743 mmHg 85%
    09:00 +32°C° 0.4 mm 6 m/S 744 mmHg 82%
    10:00 +34°C° 0.1 mm 5 m/S 744 mmHg 76%
    11:00 +36°C° 0.1 mm 5 m/S 744 mmHg 71%
    12:00 +37°C° 0.1 mm 5 m/S 744 mmHg 65%
    13:00 +39°C° 0.2 mm 6 m/S 743 mmHg 64%
    14:00 +39°C° 0.2 mm 6 m/S 743 mmHg 62%
    15:00 +39°C° 0.2 mm 6 m/S 742 mmHg 61%
    16:00 +38°C° 0.2 mm 6 m/S 742 mmHg 67%
    17:00 +35°C° 0.2 mm 7 m/S 742 mmHg 73%
    18:00 +34°C° 0.2 mm 7 m/S 742 mmHg 78%
    19:00 +33°C° 0.9 mm 6 m/S 742 mmHg 82%
    20:00 +32°C° 0.9 mm 6 m/S 743 mmHg 85%
    21:00 +30°C° 0.9 mm 5 m/S 744 mmHg 89%
    22:00 +30°C° 1.8 mm 6 m/S 744 mmHg 89%
    23:00 +30°C° 1.8 mm 6 m/S 744 mmHg 89%

    29 Juni, Samstag

    Zeit Temperatur Niederschläge Wind Luftdruck Luftfeuchtigkeit
    00:00 +30°C° 1.8 mm 7 m/S 744 mmHg 90%
    01:00 +29°C° 1.1 mm 6 m/S 744 mmHg 90%
    02:00 +29°C° 1.1 mm 6 m/S 743 mmHg 90%
    03:00 +29°C° 1.1 mm 5 m/S 743 mmHg 90%
    04:00 +29°C° 0.8 mm 5 m/S 743 mmHg 91%
    05:00 +29°C° 0.8 mm 5 m/S 743 mmHg 91%
    06:00 +29°C° 0.8 mm 5 m/S 743 mmHg 92%
    07:00 +29°C° 0.3 mm 5 m/S 743 mmHg 90%
    08:00 +29°C° 0.3 mm 6 m/S 744 mmHg 89%
    09:00 +30°C° 0.3 mm 6 m/S 745 mmHg 88%
    10:00 +30°C° 0.1 mm 6 m/S 745 mmHg 87%
    11:00 +32°C° 0.1 mm 6 m/S 745 mmHg 85%
    12:00 +32°C° 0.1 mm 5 m/S 745 mmHg 84%
    13:00 +32°C° 0.2 mm 5 m/S 744 mmHg 83%
    14:00 +33°C° 0.2 mm 5 m/S 744 mmHg 81%
    15:00 +34°C° 0.2 mm 6 m/S 743 mmHg 80%
    16:00 +33°C° 0.3 mm 6 m/S 743 mmHg 81%
    17:00 +33°C° 0.3 mm 6 m/S 743 mmHg 82%
    18:00 +32°C° 0.3 mm 6 m/S 742 mmHg 84%
    19:00 +32°C° 1.5 mm 5 m/S 743 mmHg 86%
    20:00 +30°C° 1.5 mm 5 m/S 743 mmHg 89%
    21:00 +29°C° 1.5 mm 4 m/S 744 mmHg 91%
    22:00 +29°C° 2.9 mm 5 m/S 744 mmHg 92%
    23:00 +29°C° 2.9 mm 5 m/S 744 mmHg 93%

    30 Juni, Sonntag

    Zeit Temperatur Niederschläge Wind Luftdruck Luftfeuchtigkeit
    00:00 +29°C° 2.9 mm 6 m/S 744 mmHg 93%
    01:00 +29°C° 2.1 mm 5 m/S 744 mmHg 94%
    02:00 +29°C° 2.1 mm 5 m/S 744 mmHg 94%
    03:00 +29°C° 2.1 mm 4 m/S 743 mmHg 94%
    04:00 +29°C° 2 mm 4 m/S 743 mmHg 95%
    05:00 +28°C° 2 mm 5 m/S 744 mmHg 95%
    06:00 +28°C° 2 mm 5 m/S 744 mmHg 95%
    07:00 +29°C° 0.2 mm 5 m/S 744 mmHg 93%
    08:00 +29°C° 0.2 mm 5 m/S 744 mmHg 90%
    09:00 +30°C° 0.2 mm 5 m/S 745 mmHg 88%
    10:00 +32°C° 0 mm 5 m/S 745 mmHg 84%
    11:00 +33°C° 0 mm 4 m/S 744 mmHg 80%
    12:00 +34°C° 0 mm 4 m/S 744 mmHg 77%
    13:00 +35°C° 0 mm 4 m/S 744 mmHg 74%
    14:00 +35°C° 0 mm 3 m/S 743 mmHg 72%
    15:00 +35°C° 0 mm 3 m/S 742 mmHg 69%
    16:00 +35°C° 0.3 mm 2 m/S 742 mmHg 71%
    17:00 +35°C° 0.3 mm 2 m/S 742 mmHg 73%
    18:00 +35°C° 0.3 mm 2 m/S 742 mmHg 74%
    19:00 +34°C° 0.5 mm 2 m/S 743 mmHg 78%
    20:00 +33°C° 0.5 mm 3 m/S 743 mmHg 81%
    21:00 +31°C° 0.5 mm 3 m/S 744 mmHg 85%
    22:00 +31°C° 1.1 mm 3 m/S 744 mmHg 86%
    23:00 +31°C° 1.1 mm 3 m/S 744 mmHg 87%
    Mehr zeigen